Location: Banksville Park
(38.5557°N, 75.1182°W)
Time: 15:07:49
(UTC+00:00)

Cosmos 2278 - Pass Details

Date: 19 September 2020
Orbit: 841 x 851 km, 71.1° (Epoch: 27 October)

Event Time Altitude Azimuth Distance (km) Brightness Sun altitude
Exits shadow 08:34:15 62° 296° (WNW) 954 3.7 -25.8°
Drops below altitude 10° 08:39:52 10° 16° (NNE) 2,484 6.6 -24.8°
Sets 08:42:22 0° 20° (NNE) 3,423 7.5 -24.3°
